Dewpoint
46 45 45 46 46 46 46 47 47 48 48 48 49 48 48 48 47 47 48 49 48 47 47 47 47 47 48 32 12 38 43 51 50 41 28 26 27 28 27 26 22 22 22 21 21 20 19
45 45 45 45 45 43 44 46 47 47 47 48 49 49 48 48 48 48 48 49 48 48 46 47 47 47 46 19 19 39 39 39 37 31 28 25 24 25 24 26 22 24 21 20 22 24 24
42 45 45 45 46 45 44 45 46 46 46 46 47 48 49 47 48 48 48 49 49 48 47 46 47 46 42 23 30 34 38 35 35 34 27 26 23 27 26 25 26 25 23 24 23 22 21
45 44 44 45 45 45 45 45 46 46 46 46 47 48 49 49 49 49 49 49 49 48 47 46 46 45 35 40 42 41 40 38 38 33 31 31 34 27 26 27 26 24 23 19 19 21 21
47 47 45 44 44 46 45 45 46 45 45 46 49 49 49 50 49 49 49 49 48 47 48 48 45 42 27 37 38 37 39 34 41 39 33 33 33 31 29 23 22 23 15 17 16 19 20
44 44 45 45 44 44 45 45 44 45 45 47 48 49 49 49 49 49 49 46 44 46 47 46 44 35 31 14 33 37 43 42 34 37 32 31 32 30 30 24 16 18 19 20 17 19 22
41 43 44 44 43 43 44 44 44 44 44 46 48 49 49 49 49 49 47 39 35 32 37 32 33 32 32 38 39 39 42 38 33 30 22 32 28 27 27 27 22 22 19 17 19 22 21
42 42 42 44 43 42 42 42 43 44 43 46 47 48 49 49 48 49 43 35 38 38 34 36 35 35 36 37 30 29 35 30 29 24 28 28 27 28 27 29 27 22 20 18 21 22 22
41 40 42 42 41 41 42 40 42 42 43 46 47 48 49 48 48 43 40 37 42 40 36 33 36 35 32 31 29 26 30 32 27 25 25 21 26 28 27 26 27 26 24 23 21 22 22
40 41 42 42 40 42 41 40 41 40 44 46 47 48 48 47 43 41 38 43 41 42 28 19 26 30 29 30 25 28 22 21 29 25 25 24 23 24 26 23 25 21 25 25 24 22 16
41 42 43 43 41 41 41 42 40 41 42 44 46 48 48 46 38 38 41 42 42 41 -6 7 27 29 29 23 20 31 28 22 10 23 26 24 24 22 22 25 26 22 25 24 24 22 21
40 39 41 42 41 41 41 41 40 41 42 43 46 47 46 45 44 42 42 43 44 27 -2 5 28 30 25 26 25 32 30 28 24 17 20 22 26 25 20 23 27 27 24 24 26 23 18
38 39 40 41 41 41 41 41 41 40 42 43 45 47 46 46 41 44 44 40 26 19 16 15 18 21 20 24 28 27 28 24 22 14 11 16 19 24 25 23 27 25 24 19 21 21 14
40 41 41 42 41 40 40 39 40 41 43 44 45 46 46 45 43 42 40 28 21 19 21 22 21 21 14 20 24 26 26 24 23 22 13 12 10 21 24 22 23 25 24 17 11 16 15
33 37 40 38 39 40 40 40 40 41 42 43 44 43 44 45 44 42 34 23 17 21 23 22 19 16 17 22 25 27 24 23 23 22 14 12 11 17 22 25 24 26 23 23 22 30 25
37 35 38 39 40 40 39 40 40 41 42 43 41 40 39 46 45 40 31 23 21 25 26 25 16 22 19 21 23 26 25 26 25 30 25 23 17 20 20 22 23 24 27 23 23 16 16
37 37 37 38 39 39 39 40 41 41 42 43 41 36 38 47 45 37 26 25 22 21 21 25 24 22 24 23 23 27 25 27 32 33 31 26 23 22 24 20 19 20 22 26 24 23 15
36 37 37 38 39 40 41 40 41 41 43 42 38 30 42 46 33 32 29 27 25 25 25 21 26 26 24 24 22 22 24 25 35 35 34 36 30 19 19 23 23 21 20 22 23 25 26
38 39 39 40 40 41 41 42 42 42 43 40 33 33 42 41 27 28 32 31 26 24 24 27 23 26 27 23 17 22 25 28 32 31 31 31 32 23 18 17 18 20 23 22 21 27 24
39 40 40 40 41 41 41 42 42 42 43 41 35 28 35 39 36 30 27 30 29 27 25 28 28 28 27 26 26 23 24 24 26 23 35 31 32 32 24 23 26 16 22 25 24 23 21
40 41 42 42 42 42 42 43 44 43 44 42 35 29 32 28 30 32 30 27 27 26 27 25 24 27 26 25 25 24 23 22 23 25 37 34 23 26 32 31 32 30 22 21 24 26 23
41 42 43 42 43 43 42 43 43 43 44 40 31 31 34 30 31 32 29 27 25 28 26 25 24 25 25 26 26 21 22 23 23 27 24 32 30 33 30 31 31 29 26 21 25 24 25
42 42 42 42 42 42 43 44 45 44 44 38 38 37 35 31 32 30 30 28 27 27 28 26 25 25 28 29 29 28 28 27 26 26 26 26 32 30 24 31 32 26 25 23 22 25 25
42 42 42 42 41 41 42 41 42 43 44 41 38 37 33 29 30 30 31 30 27 27 28 28 27 29 30 31 30 30 30 29 29 28 28 27 30 31 26 31 23 26 30 27 25 25 29
42 42 41 41 42 42 42 42 42 41 43 43 41 37 33 28 32 29 30 31 30 32 31 30 30 31 34 34 29 26 25 26 26 28 29 30 27 29 27 27 29 30 31 31 28 26 29
42 42 42 42 42 42 42 42 42 42 41 40 41 41 38 31 29 31 31 31 30 30 33 33 32 35 34 32 29 23 19 23 22 26 29 29 28 31 30 25 20 27 31 33 33 27 33
42 42 43 42 43 42 42 42 42 42 42 40 39 40 36 32 32 33 31 33 33 32 31 31 33 34 35 30 26 22 21 23 18 24 29 30 31 28 28 27 27 31 33 35 26 27 35
43 44 44 44 45 44 43 43 43 43 42 41 38 42 36 32 34 36 35 34 32 31 29 31 31 33 32 28 27 28 26 24 20 20 27 29 28 28 29 27 24 34 35 30 34 38 38
44 44 44 44 45 45 44 44 44 43 43 42 37 42 40 35 36 42 40 39 32 32 30 32 29 30 31 29 29 28 26 26 24 17 24 19 29 28 30 28 32 35 35 38 41 40 38
Wind_Speed
12 12 12 13 11 11 12 12 12 11 11 12 13 13 15 15 16 16 16 15 16 17 16 18 18 20 8 5 12 1 9 3 3 6 7 8 9 7 9 8 7 9 9 11 13 8 10
13 13 12 13 13 14 14 13 12 12 12 12 13 14 16 17 17 19 18 18 16 16 16 15 14 13 3 11 4 4 7 3 2 4 4 7 7 8 5 6 11 5 9 13 10 10 8
15 13 13 15 15 13 13 12 12 14 13 13 14 14 16 18 20 21 21 20 18 20 18 15 11 6 7 23 2 5 12 4 4 1 5 5 3 4 4 4 5 4 12 14 15 19 14
14 16 13 14 13 14 12 11 11 13 14 14 15 15 16 17 19 21 22 22 23 25 24 17 11 4 12 8 7 14 8 10 14 14 11 12 3 5 4 2 1 3 3 8 2 1 3
15 16 14 12 15 15 13 12 11 15 16 15 17 17 16 16 18 21 22 23 29 24 13 6 6 7 14 6 4 10 13 9 4 6 11 2 4 5 3 10 7 4 15 11 11 5 5
16 18 15 15 15 14 14 14 14 16 16 15 17 18 17 17 19 18 19 28 21 1 11 11 4 4 10 3 4 2 8 6 3 11 7 6 6 7 7 14 23 13 11 7 14 1 2
18 19 19 18 15 15 15 16 16 16 17 17 17 15 15 17 19 15 14 8 5 2 2 7 6 6 7 7 5 3 6 3 5 5 11 9 15 22 37 20 8 10 10 13 8 5 2
18 19 21 18 14 16 17 15 18 17 17 17 16 14 15 16 17 11 5 3 5 6 15 17 26 29 24 5 7 6 5 7 8 10 10 6 24 26 7 14 18 13 11 24 14 10 8
20 21 23 18 17 17 17 17 17 17 18 18 14 15 15 15 12 6 3 4 3 7 7 9 7 9 9 17 14 15 3 5 9 15 20 21 7 20 16 13 16 21 23 23 19 7 11
22 24 23 19 16 17 16 18 18 19 20 18 15 15 14 12 5 2 4 2 8 2 6 7 4 6 5 8 8 16 17 10 7 19 14 15 20 10 21 23 22 24 17 19 18 10 10
23 21 21 20 16 15 16 19 16 17 19 20 19 17 14 7 2 2 1 6 8 1 7 1 3 4 7 7 9 2 10 10 27 11 7 9 10 23 16 17 19 19 8 14 20 17 9
22 23 24 21 17 14 19 16 17 17 18 20 20 19 15 5 4 8 6 11 3 2 10 2 4 3 2 8 4 3 4 4 5 18 11 6 2 9 13 19 21 4 10 1 0 5 12
26 24 23 20 19 17 16 16 16 18 19 19 20 17 13 5 4 3 4 1 3 8 4 2 2 3 8 1 0 3 5 12 6 7 16 14 19 6 4 8 11 10 7 3 4 8 14
24 27 22 18 17 17 18 20 19 19 18 19 19 17 10 10 9 7 2 3 12 3 4 4 3 5 2 4 1 3 5 6 9 4 2 16 12 21 14 15 11 20 15 9 9 10 10
28 25 24 20 20 21 20 20 19 18 19 18 17 11 6 9 13 9 6 13 6 6 4 5 4 2 3 4 3 5 2 1 2 11 8 6 7 7 13 16 22 9 18 22 8 2 4
28 27 26 24 23 20 20 20 20 18 20 17 7 6 13 11 18 9 9 16 9 2 3 4 1 4 2 6 5 6 3 4 4 8 10 3 7 9 9 12 17 13 16 9 15 11 16
29 26 26 26 24 24 24 24 22 21 20 17 9 7 7 20 15 11 25 13 9 10 2 5 2 3 2 3 3 1 3 1 9 11 8 4 3 3 4 8 19 15 17 6 9 13 15
27 28 29 29 28 27 26 25 23 21 20 15 6 11 10 20 21 6 19 13 7 2 5 8 1 1 1 3 1 2 4 2 6 5 6 10 3 12 16 6 3 18 27 26 14 8 10
31 30 31 31 30 29 28 27 26 24 22 4 8 12 10 21 21 28 2 9 17 7 8 4 10 7 3 1 3 3 6 3 6 9 5 10 4 4 5 15 10 10 11 20 26 11 21
32 32 32 31 31 30 30 29 29 28 27 21 8 11 10 20 12 23 26 10 10 17 11 1 1 3 4 4 5 4 3 5 9 13 6 7 4 8 9 10 15 11 14 15 24 22 26
34 34 33 32 32 33 33 33 33 32 30 23 14 9 10 14 27 19 22 14 19 14 16 13 9 8 3 3 4 9 11 14 13 19 8 4 11 13 21 25 26 28 20 19 23 26 19
30 30 31 30 29 29 29 31 30 30 31 26 11 7 4 14 15 28 30 28 24 20 14 16 15 11 19 22 22 20 11 6 4 5 7 7 3 4 16 18 24 29 28 26 20 18 12
29 25 22 22 21 20 20 18 25 33 31 15 13 6 7 12 13 19 19 27 27 20 19 20 21 13 15 26 23 25 18 17 14 14 13 6 3 4 10 15 26 19 32 24 24 19 14
26 25 24 23 22 22 21 21 20 20 31 15 5 6 8 8 23 21 17 21 23 29 20 21 14 18 6 9 4 9 9 17 17 22 18 9 6 5 11 15 6 6 4 13 24 20 16
25 26 27 26 24 23 23 23 25 25 22 21 7 9 15 21 12 18 21 22 18 15 21 18 23 19 4 6 4 5 5 5 15 24 26 24 12 6 4 5 7 14 4 3 7 11 12
27 28 28 28 27 27 27 26 26 27 29 17 10 10 5 16 25 14 21 23 20 17 13 16 12 8 10 5 2 4 3 3 3 3 17 22 23 9 4 4 4 14 4 5 1 8 1
29 30 31 31 31 30 29 30 29 30 29 17 7 14 3 9 10 20 23 18 13 17 8 8 15 11 10 6 5 6 6 3 4 5 4 14 15 22 15 7 7 12 8 7 2 3 0
32 32 32 30 30 32 32 31 32 31 31 25 15 17 10 2 4 14 17 17 14 20 13 10 8 7 8 10 7 6 6 7 7 11 1 6 14 9 11 9 6 7 6 5 6 5 3
32 31 31 30 30 31 32 33 34 35 33 31 10 18 14 4 3 4 5 6 32 32 20 19 13 10 12 6 7 5 6 4 5 4 2 5 6 3 10 8 4 5 10 9 5 10 5
Wind_Direction
314 310 314 314 313 325 318 317 315 325 324 314 311 311 313 314 317 317 316 317 319 319 320 316 318 330 351 314 252 4 47 72 124 190 199 174 173 174 190 194 180 225 246 242 247 243 251
294 298 302 301 308 304 310 307 308 308 304 304 310 310 310 309 308 307 311 311 314 313 314 305 310 326 288 269 275 137 24 49 127 227 228 181 206 211 213 207 201 210 241 258 273 266 252
296 299 301 302 295 296 301 297 304 304 304 305 303 306 307 310 309 304 307 306 306 302 296 291 287 296 257 245 312 303 315 277 169 126 239 241 229 202 176 205 224 249 274 287 265 262 251
282 287 279 289 298 298 314 312 312 310 306 307 306 304 302 302 303 302 305 305 304 297 293 280 255 211 254 255 277 275 259 264 235 240 231 264 305 216 203 245 345 237 242 271 305 171 232
294 288 281 282 298 301 302 302 306 307 307 310 303 298 294 294 297 302 306 308 299 303 310 202 153 175 263 281 237 268 209 240 163 189 200 235 180 205 152 222 249 233 252 245 288 227 218
297 298 290 288 278 287 299 298 307 304 309 309 307 301 292 295 294 307 320 304 299 39 76 121 162 231 258 248 283 173 179 238 165 133 120 198 192 188 199 189 222 216 232 239 251 196 141
291 291 291 282 282 296 294 296 297 302 306 303 306 306 307 297 296 322 334 338 3 307 0 226 214 258 275 314 283 193 158 172 147 150 180 194 195 195 218 212 223 203 218 244 238 217 298
286 285 287 282 285 288 285 292 295 300 302 304 299 304 303 303 306 330 334 338 89 297 299 251 245 249 256 330 302 264 187 194 184 198 162 163 222 219 206 205 218 232 241 252 281 277 221
288 282 279 277 288 287 290 290 290 296 300 299 296 300 302 305 317 322 296 245 10 344 262 283 221 242 235 201 237 236 215 199 203 200 195 205 218 205 204 214 211 232 235 252 254 308 283
278 280 278 273 278 283 286 290 290 292 293 293 294 294 294 300 298 274 270 301 330 244 312 276 241 261 188 183 240 216 223 221 229 216 198 225 224 203 212 220 208 237 233 248 256 269 264
291 289 286 268 262 271 276 275 280 283 291 295 292 289 285 250 269 258 292 308 324 254 290 125 178 176 160 186 307 194 189 198 230 217 181 210 201 212 212 213 196 238 231 226 236 238 273
292 289 286 278 267 259 269 270 280 282 288 289 288 290 291 279 216 247 281 322 325 260 242 2 139 177 222 219 283 101 139 216 217 242 261 246 226 189 215 218 191 293 208 163 192 224 250
280 282 284 274 271 270 271 275 273 279 281 283 282 287 289 212 243 251 215 235 220 221 327 66 14 332 318 243 236 193 139 185 196 175 223 237 239 222 172 177 192 203 156 214 234 212 243
286 283 279 274 277 282 274 273 271 271 273 279 279 284 274 246 185 151 132 187 221 213 278 297 293 314 319 5 303 20 127 179 246 220 164 207 234 203 192 203 185 206 207 202 243 244 261
284 281 276 277 276 271 269 270 268 268 271 273 284 283 245 239 182 186 153 210 228 204 287 311 323 36 346 31 5 17 55 221 296 219 217 212 243 232 209 199 191 189 211 210 249 236 290
273 275 276 271 265 264 270 272 265 264 263 266 264 255 244 194 166 166 201 221 218 258 2 343 321 41 18 358 33 23 47 12 340 11 231 308 257 229 227 206 224 204 151 171 220 236 245
276 275 275 276 273 269 263 260 258 256 256 256 253 241 233 165 159 191 223 210 214 248 334 18 10 314 35 25 22 24 313 77 5 352 39 334 231 279 183 190 203 208 219 205 198 215 235
277 272 268 265 261 259 254 251 250 247 247 246 244 244 177 152 208 211 220 206 193 133 230 237 349 260 220 310 345 299 270 307 15 24 16 13 304 237 255 244 253 227 217 220 221 203 233
276 272 267 263 259 254 249 243 241 238 230 207 234 238 215 182 218 229 186 197 207 206 230 198 217 205 202 242 311 268 262 311 36 41 36 9 0 300 258 275 261 241 226 229 236 253 237
275 270 267 262 258 253 249 243 238 234 229 214 231 216 208 203 219 229 212 207 192 206 235 169 223 157 195 226 224 276 298 303 333 323 176 134 250 268 259 294 315 239 222 214 209 225 239
273 268 265 263 259 257 253 247 240 234 226 213 198 228 193 203 208 213 214 207 209 206 208 216 243 227 173 223 254 243 258 284 298 283 178 231 255 267 266 275 284 271 266 233 216 226 220
278 275 269 263 258 254 250 244 238 229 217 214 204 203 179 233 204 202 212 218 210 196 181 215 221 213 227 245 241 264 264 292 298 311 9 332 286 278 281 273 275 262 256 251 245 234 240
278 275 271 265 259 258 256 251 233 220 210 211 208 190 201 211 191 194 206 203 205 201 215 215 207 210 230 238 247 252 260 263 253 274 286 281 257 287 282 319 310 239 241 239 241 242 243
268 266 267 263 257 249 242 231 219 234 211 213 158 149 208 224 201 204 191 197 199 199 204 211 199 202 216 260 274 266 245 251 247 250 229 237 258 292 300 322 221 310 277 245 226 231 218
265 264 264 260 253 247 240 233 221 212 226 212 176 185 202 227 209 205 202 196 199 195 208 213 207 213 184 290 260 253 239 250 240 225 215 209 204 251 248 271 312 291 353 273 196 245 242
265 262 259 256 249 242 239 227 222 217 204 224 185 217 169 215 223 194 197 197 189 195 195 216 207 159 186 195 187 227 205 254 285 267 209 198 200 201 198 273 274 240 267 330 140 296 306
267 263 259 257 249 243 234 226 217 213 206 187 198 208 127 198 206 185 188 185 178 180 208 185 189 188 191 188 189 237 243 269 281 298 143 168 193 217 235 245 273 268 274 311 223 286 284
271 266 261 261 251 238 230 222 213 209 203 188 198 184 179 180 252 203 183 168 173 182 178 158 148 182 181 196 199 194 196 212 232 257 323 184 179 196 222 239 257 354 359 337 319 326 7
270 265 261 255 245 236 229 214 209 203 200 188 197 171 166 201 287 316 293 232 181 183 173 164 180 156 181 170 195 200 200 206 214 257 200 241 212 155 201 219 281 288 267 280 311 294 270